This demonstration page uses our WeatherBlox Daily Observations layout. Learn more.

38.88101, -77.10428

Hourly Observations for January 22, 2017

Temp ( °F °C ) Dew Point ( °F °C ) Humidity (%) Winds ( mph kmh ) Pressure ( in mb ) Visibility ( mi km ) Precip ( " mm )
12:07 am 00:07 Cloudy with Mist and Fog 47 8.3 47 8.3 100 100 NE 6 9 29.77 1008 5 8.0467 0 0
12:52 am 00:52 Cloudy with Mist and Fog 47 8.3 47 8.3 100 100 NE 7 11 29.75 1007 4 6.43736 0 0
1:44 am 01:44 Cloudy with Mist and Fog 46 8 46 8 100 100 NE 8 13 29.74 1007 2.5 4.02335 0 0
1:52 am 01:52 Cloudy with Mist and Fog 47 8.3 46 7.8 97 97 NE 8 13 29.73 1007 2.5 4.02335 0 0
2:52 am 02:52 Cloudy with Light Rain 47 8.3 47 8.3 100 100 NE 8 13 29.72 1006 2 3.21868 0 0.0254
3:21 am 03:21 Cloudy with Light Drizzle 47 8.3 47 8.3 100 100 NNE 6 9 29.71 1006 3 4.82802 0 0.0254
3:52 am 03:52 Cloudy with Mist and Fog 47 8.3 47 8.3 100 100 NE 6 9 29.71 1006 3 4.82802 0 0.0254
4:23 am 04:23 Cloudy with Mist and Fog 47 8.3 47 8.3 100 100 NE 6 9 29.71 1006 1.5 2.41401 0 0
4:52 am 04:52 Cloudy with Mist and Fog 47 8.3 47 8.3 100 100 NE 5 7 29.7 1006 1 1.60934 0 0
4:59 am 04:59 Mostly Cloudy with Fog 47 8.3 47 8.3 100 100 NE 6 9 29.71 1006 1 1.60934 0 0
5:20 am 05:20 Cloudy with Light Drizzle 46 8 46 8 100 100 N 5 7 29.71 1006 1.25 2.011675 0 0
5:28 am 05:28 Cloudy with Light Drizzle 46 8 46 8 100 100 N 7 11 29.71 1006 2 3.21868 0 0
5:47 am 05:47 Cloudy with Mist and Fog 46 8 46 8 100 100 NNE 9 15 29.68 1005 3 4.82802 0 0.0254
5:52 am 05:52 Cloudy with Mist and Fog 47 8.3 46 7.8 97 97 NNE 8 13 29.68 1005 3 4.82802 0 0.0254
6:52 am 06:52 Cloudy with Light Drizzle 47 8.3 47 8.3 100 100 N 8 13 29.7 1006 4 6.43736 0 0.0254
7:07 am 07:07 Cloudy with Light Drizzle 47 8.3 47 8.3 100 100 NNE 8 13 29.71 1006 2.5 4.02335 0 0.0254
7:21 am 07:21 Cloudy with Light Drizzle 47 8.3 47 8.3 100 100 N 7 11 29.71 1006 2.5 4.02335 0 0.0254
7:31 am 07:31 Cloudy with Light Drizzle 47 8.3 47 8.3 100 100 N 6 9 29.71 1006 3 4.82802 0 0.0254
7:36 am 07:36 Cloudy with Light Drizzle 46 8 46 8 100 100 N 6 9 29.71 1006 2.5 4.02335 0 0
7:52 am 07:52 Cloudy with Light Drizzle 48 8.9 47 8.3 96 96 N 8 13 29.71 1006 2.5 4.02335 0 0.0254
7:58 am 07:58 Cloudy with Light Drizzle 48 9 46 8 94 94 N 8 13 29.71 1006 3 4.82802 0 0
8:52 am 08:52 Cloudy with Light Drizzle 48 8.9 48 8.9 100 100 N 10 17 29.71 1006 4 6.43736 0 0.0254
9:52 am 09:52 Cloudy 50 10 48 8.9 93 93 NNW 5 7 29.74 1007 10 16.0934 0 0.0254
10:52 am 10:52 Cloudy 50 10 48 8.9 93 93 N 8 13 29.72 1006 10 16.0934 0 0
11:30 am 11:30 Cloudy 50 10 48 9 94 94 NNE 9 15 29.68 1005 10 16.0934 0 0
11:44 am 11:44 Cloudy 50 10 48 9 94 94 N 9 15 29.68 1005 10 16.0934 0 0
11:52 am 11:52 Cloudy 50 10 48 8.9 93 93 N 9 15 29.68 1005 10 16.0934 0 0
12:52 pm 12:52 Cloudy 50 10 48 8.9 93 93 N 7 11 29.64 1004 10 16.0934 0 0
1:52 pm 13:52 Cloudy 50 10 48 8.9 93 93 NNE 7 11 29.61 1003 10 16.0934 0 0.0254
2:18 pm 14:18 Cloudy with Light Rain 50 10 48 9 94 94 NNE 9 15 29.59 1002 2.5 4.02335 0 0
2:26 pm 14:26 Cloudy with Light Drizzle 50 10 48 9 94 94 NNW 8 13 29.62 1003 3 4.82802 0 0
2:43 pm 14:43 Cloudy with Light Rain 51 10.6 50 10 96 96 NW 9 15 29.65 1004 2.5 4.02335 0.01 0.254
2:48 pm 14:48 Cloudy with Rain 52 11 50 10 94 94 NW 9 15 29.65 1004 1.75 2.816345 0 0
2:52 pm 14:52 Cloudy with Rain 51 10.6 50 10 96 96 NW 5 7 29.65 1004 1.25 2.011675 0.03 0.762
3:01 pm 15:01 Cloudy with Light Rain 51 10.6 51 10.6 100 100 WNW 5 7 29.65 1004 1 1.60934 0.03 0.762
3:14 pm 15:14 Cloudy with Light Rain 52 11 52 11 100 100 N 8 13 29.65 1004 2 3.21868 0 0
3:22 pm 15:22 Cloudy with Light Rain 52 11 52 11 100 100 NNE 5 7 29.65 1004 2.5 4.02335 0 0
3:29 pm 15:29 Cloudy with Light Rain 50 10 50 10 100 100 ENE 5 7 29.65 1004 1.5 2.41401 0.05 1.27
3:36 pm 15:36 Cloudy with Light Rain 50 10 50 10 100 100 N 5 7 29.65 1004 2.5 4.02335 0 0
3:52 pm 15:52 Cloudy with Light Rain 51 10.6 51 10.6 100 100 N 6 9 29.65 1004 4 6.43736 0.06 1.524
4:18 pm 16:18 Cloudy with Light Rain 50 10 50 10 100 100 NE 6 9 29.62 1003 4 6.43736 0 0
4:40 pm 16:40 Cloudy with Light Rain 50 10 50 10 100 100 NE 10 17 29.62 1003 5 8.0467 0 0
4:52 pm 16:52 Cloudy with Light Rain 49 9.4 49 9.4 100 100 ENE 9 15 29.62 1003 7 11.26538 0.02 0.508
5:01 pm 17:01 Cloudy with Light Rain 50 10 50 10 100 100 NE 6 9 29.62 1003 7 11.26538 0 0.0254
5:12 pm 17:12 Cloudy with Light Rain 50 10 50 10 100 100 NE 7 11 29.62 1003 8 12.87472 0 0
5:52 pm 17:52 Cloudy with Light Rain 50 10 50 10 100 100 ENE 9 15 29.63 1003 10 16.0934 0.01 0.254
6:08 pm 18:08 Cloudy with Light Rain 50 10 50 10 100 100 NE 8 13 29.65 1004 10 16.0934 0 0
6:25 pm 18:25 Cloudy with Light Rain 51 10.6 50 10 96 96 NE 9 15 29.65 1004 10 16.0934 0 0.0254
6:52 pm 18:52 Cloudy 50 10 49 9.4 96 96 NE 13 20 29.63 1003 10 16.0934 0 0.0254
7:52 pm 19:52 Cloudy 50 10 49 9.4 96 96 NE 12 19 29.64 1004 8 12.87472 0 0
8:28 pm 20:28 Cloudy with Mist and Fog 50 10 50 10 100 100 NE 12 19 29.62 1003 3 4.82802 0 0
8:34 pm 20:34 Cloudy with Light Rain 50 10 50 10 100 100 NE 13 20 29.62 1003 2.5 4.02335 0 0
8:45 pm 20:45 Cloudy with Light Rain 50 10 50 10 100 100 NE 10 17 29.62 1003 4 6.43736 0 0.0254
8:52 pm 20:52 Cloudy with Light Rain 50 10 50 10 100 100 NE 10 17 29.63 1003 4 6.43736 0 0.0254
9:04 pm 21:04 Cloudy with Light Rain 50 10 50 10 100 100 NE 10 17 29.62 1003 4 6.43736 0 0
9:37 pm 21:37 Cloudy with Light Rain 50 10 50 10 100 100 NNE 12 19 29.62 1003 4 6.43736 0.01 0.254
9:52 pm 21:52 Cloudy with Mist and Fog 50 10 49 9.4 96 96 NE 14 22 29.62 1003 5 8.0467 0.01 0.254
10:52 pm 22:52 Cloudy with Light Rain 50 10 49 9.4 96 96 NE 10 17 29.64 1004 4 6.43736 0 0.0254
11:14 pm 23:14 Cloudy with Light Rain 50 10 48 9 94 94 NE 13 20 29.62 1003 2.5 4.02335 0 0
11:29 pm 23:29 Cloudy with Light Rain 50 10 49 9.4 96 96 NE 12 19 29.62 1003 3 4.82802 0.01 0.254
11:52 pm 23:52 Cloudy with Light Rain 50 10 49 9.4 96 96 NE 14 22 29.62 1003 4 6.43736 0.02 0.508

Powered by AerisWeather